Location: Slanting_Bridge
(35.6330°N, 80.9830°W)
Time: 09:42:08
(UTC-04:00)

Amateur Radio Satellites - All Passes

Search period start: 18 September 2014 09:12
Search period end: 19 September 2014 09:12
Location: Slanting_Bridge, 35.6330°N, 80.9830°W

Satellite Date Start Highest point End Downlink Frequencies (MHz)
Time Altitude Azimuth
ISS 18 Sep 09:45:35 09:47:59 18° 30° (NNE) 09:50:23 145.800 FM
Oscar 11 18 Sep 10:09:55 10:12:38 16° 93° (E) 10:15:19 145.825 FM, Beacon 2401.500 USB
UKube-1 18 Sep 10:24:02 10:27:58 33° 98° (E) 10:31:53 145.840 MHz, 145.915 MHz
UOSAT-12 18 Sep 10:47:48 10:52:26 57° 244° (WSW) 10:56:57 437.025 FM, 437.400 FM
MaSat-1 18 Sep 10:48:11 10:50:56 15° 306° (NW) 10:53:41 437.345 MHz
HO-68 18 Sep 10:57:08 11:04:15 68° 289° (WNW) 11:11:21 435.675 MHz FM
RS-15 18 Sep 11:15:29 11:21:05 15° 19° (NNE) 11:26:45 29.354 - 29.394 USB, Beacon 29.352 USB
ISS 18 Sep 11:21:40 11:24:53 48° 226° (SW) 11:28:05 145.800 FM
FUNcube-1 18 Sep 11:30:14 11:34:48 56° 100° (E) 11:39:16 145.950 - 145.970 MHz USB
Oscar 11 18 Sep 11:44:55 11:48:55 36° 288° (WNW) 11:52:52 145.825 FM, Beacon 2401.500 USB
UKube-1 18 Sep 12:00:51 12:03:54 19° 292° (WNW) 12:06:57 145.840 MHz, 145.915 MHz
Sapphire 18 Sep 12:08:27 12:12:35 23° 106° (ESE) 12:16:44 437.095 MHz 1200 baud AX-25 AFSK
PCSat 18 Sep 12:34:29 12:39:34 44° 111° (ESE) 12:44:42 145.825 MHz
HO-68 18 Sep 12:48:51 12:50:38 11° 306° (NW) 12:52:26 435.675 MHz FM
Oscar 16 18 Sep 12:48:57 12:51:14 13° 63° (ENE) 12:53:32 437.025 USB, Beacon 2401.1428
FUNcube-1 18 Sep 13:08:33 13:10:38 13° 295° (WNW) 13:12:43 145.950 - 145.970 MHz USB
RS-15 18 Sep 13:27:07 13:37:34 44° 49° (NE) 13:48:22 29.354 - 29.394 USB, Beacon 29.352 USB
ITAMSAT 1 18 Sep 13:29:27 13:31:42 13° 63° (ENE) 13:33:57 435.822 SSB
Uribyol 2 18 Sep 13:33:16 13:36:11 15° 64° (ENE) 13:39:06 436.500 FM
Oscar 19 18 Sep 13:46:27 13:51:24 47° 72° (ENE) 13:56:22 437.125 CW, 437.150 USB
JAS-1B 18 Sep 13:46:41 13:54:25 37° 68° (ENE) 14:01:05 435.800 - 435.900 CW/SSB
Sapphire 18 Sep 13:50:36 13:55:41 42° 302° (WNW) 14:00:49 437.095 MHz 1200 baud AX-25 AFSK
AO-27 18 Sep 14:01:39 14:05:59 28° 68° (ENE) 14:10:20 436.795 MHz FM
PCSat 18 Sep 14:18:52 14:23:09 24° 307° (NW) 14:27:28 145.825 MHz
Oscar 16 18 Sep 14:24:47 14:29:56 70° 258° (WSW) 14:35:08 437.025 USB, Beacon 2401.1428
Oscar 10/S400 18 Sep 14:40:06 14:59:17 26° 150° (SSE) 15:14:22 145.825 - 145.975 CW/USB, Beacon 145.810 USB
Gurwin Techsat 1B 18 Sep 14:46:08 14:50:52 34° 70° (ENE) 14:55:37 435.225 FM
AO-Echo 18 Sep 14:49:10 14:53:58 86° 257° (WSW) 14:58:41 ?
ITAMSAT 1 18 Sep 15:05:25 15:10:33 70° 258° (WSW) 15:15:43 435.822 SSB
Uribyol 2 18 Sep 15:10:03 15:15:07 58° 259° (W) 15:20:14 436.500 FM
TMSAT-1 18 Sep 15:23:33 15:28:42 58° 73° (ENE) 15:33:54 436.925 FM
Oscar 19 18 Sep 15:27:30 15:30:56 18° 267° (W) 15:34:23 437.125 CW, 437.150 USB
JAS-1B 18 Sep 15:36:18 15:44:47 45° 260° (W) 15:52:04 435.800 - 435.900 CW/SSB
AO-7 18 Sep 15:36:24 15:43:16 30° 60° (ENE) 15:50:07 29.400 - 29.500 MHz
RS-15 18 Sep 15:39:26 15:50:06 53° 249° (WSW) 16:01:14 29.354 - 29.394 USB, Beacon 29.352 USB
AO-27 18 Sep 15:40:52 15:45:22 30° 263° (W) 15:49:54 436.795 MHz FM
Uosat F 18 Sep 15:59:16 16:02:55 21° 66° (ENE) 16:06:34 435.120 FM
Gurwin Techsat 1B 18 Sep 16:26:31 16:30:50 25° 264° (W) 16:35:10 435.225 FM
OPAL 18 Sep 16:59:46 17:02:18 14° 94° (E) 17:04:48 ?
TMSAT-1 18 Sep 17:06:05 17:08:57 15° 268° (W) 17:11:50 436.925 FM
AO-7 18 Sep 17:27:25 17:35:33 57° 257° (WSW) 17:43:42 29.400 - 29.500 MHz
Uosat F 18 Sep 17:36:45 17:41:24 39° 261° (W) 17:46:04 435.120 FM
JAS-2 18 Sep 17:45:48 17:50:23 30° 70° (ENE) 17:54:51 435.800 - 435.900 CW/SSB, 435.910 FM
Saudisat 1A 18 Sep 17:54:13 17:58:35 72° 118° (ESE) 18:02:59 436.775 MHz
Hamsat 18 Sep 17:55:59 17:59:47 30° 72° (ENE) 18:03:35 145.90 MHz
KITSAT 1 18 Sep 18:26:46 18:30:27 14° 100° (E) 18:34:07 435.175 FM
OPAL 18 Sep 18:36:26 18:41:32 60° 288° (WNW) 18:46:31 ?
MaSat-1 18 Sep 19:05:27 19:09:12 75° 66° (ENE) 19:12:21 437.345 MHz
STRAND 1 18 Sep 19:16:13 19:20:00 21° 95° (E) 19:23:47 ?
JAS-2 18 Sep 19:31:05 19:35:30 26° 263° (W) 19:39:47 435.800 - 435.900 CW/SSB, 435.910 FM
Hamsat 18 Sep 19:32:31 19:35:43 20° 266° (W) 19:38:56 145.90 MHz
Saudisat 1A 18 Sep 19:36:43 19:38:38 13° 315° (NW) 19:40:34 436.775 MHz
HO-68 18 Sep 19:40:51 19:42:33 11° 54° (NE) 19:44:16 435.675 MHz FM
SO-67 18 Sep 20:14:02 20:17:16 38° 262° (W) 20:20:31 435.3500 MHz FM
KITSAT 1 18 Sep 20:16:33 20:24:38 85° 116° (ESE) 20:32:46 435.175 FM
STRAND 1 18 Sep 20:54:31 20:59:17 40° 289° (WNW) 21:04:03 ?
Sapphire 18 Sep 21:00:17 21:02:18 12° 45° (NE) 21:04:19 437.095 MHz 1200 baud AX-25 AFSK
UKube-1 18 Sep 21:17:23 21:20:35 21° 68° (ENE) 21:23:47 145.840 MHz, 145.915 MHz
HO-68 18 Sep 21:21:53 21:28:56 68° 71° (ENE) 21:36:01 435.675 MHz FM
PCSat 18 Sep 21:25:54 21:29:58 21° 51° (NE) 21:33:59 145.825 MHz
KITSAT 1 18 Sep 22:15:01 22:21:00 22° 316° (NW) 22:27:01 435.175 FM
FUNcube-1 18 Sep 22:24:00 22:27:50 31° 71° (ENE) 22:31:45 145.950 - 145.970 MHz USB
Oscar 11 18 Sep 22:36:24 22:40:44 69° 259° (WSW) 22:45:07 145.825 FM, Beacon 2401.500 USB
Sapphire 18 Sep 22:41:06 22:46:33 83° 64° (ENE) 22:51:58 437.095 MHz 1200 baud AX-25 AFSK
UKube-1 18 Sep 22:52:47 22:56:34 29° 262° (W) 23:00:23 145.840 MHz, 145.915 MHz
PCSat 18 Sep 23:08:24 23:13:39 51° 248° (WSW) 23:18:52 145.825 MHz
HO-68 18 Sep 23:12:20 23:17:07 19° 267° (W) 23:21:55 435.675 MHz FM
SO-50 18 Sep 23:13:02 23:17:29 85° 300° (WNW) 23:22:03 436.795 FM
FUNcube-1 19 Sep 00:01:01 00:04:14 20° 266° (W) 00:07:31 145.950 - 145.970 MHz USB
Sapphire 19 Sep 00:28:25 00:29:11 10° 258° (WSW) 00:29:57 437.095 MHz 1200 baud AX-25 AFSK
UOSAT-12 19 Sep 00:55:46 01:00:22 86° 118° (ESE) 01:05:04 437.025 FM, 437.400 FM
SO-50 19 Sep 00:58:01 00:58:46 10° 318° (NW) 00:59:31 436.795 FM
Oscar 19 19 Sep 02:01:53 02:05:45 21° 94° (E) 02:09:34 437.125 CW, 437.150 USB
AO-40 19 Sep 02:05:04 02:59:05 14° 241° (WSW) 04:15:45 Beacon 2401.320
AO-27 19 Sep 02:19:22 02:21:21 12° 91° (E) 02:23:20 436.795 MHz FM
Saudisat 1A 19 Sep 02:24:08 02:27:49 25° 52° (NE) 02:31:28 436.775 MHz
ISS 19 Sep 02:25:53 02:28:30 22° 130° (SE) 02:31:08 145.800 FM
UOSAT-12 19 Sep 02:39:22 02:41:09 12° 317° (NW) 02:42:58 437.025 FM, 437.400 FM
Oscar 16 19 Sep 02:39:37 02:44:41 53° 100° (E) 02:49:42 437.025 USB, Beacon 2401.1428
PANSAT 19 Sep 02:42:29 02:45:22 20° 168° (SSE) 02:48:16 not established
AO-Echo 19 Sep 02:59:09 03:03:41 38° 99° (E) 03:08:18 ?
Gurwin Techsat 1B 19 Sep 03:06:12 03:09:39 17° 93° (E) 03:13:04 435.225 FM
ITAMSAT 1 19 Sep 03:21:19 03:26:25 54° 101° (E) 03:31:31 435.822 SSB
JAS-1B 19 Sep 03:25:15 03:30:55 63° 102° (ESE) 03:36:38 435.800 - 435.900 CW/SSB
Uribyol 2 19 Sep 03:25:40 03:30:52 64° 102° (ESE) 03:36:03 436.500 FM
Oscar 10/S400 19 Sep 03:34:28 04:48:20 30° 245° (WSW) 08:18:24 145.825 - 145.975 CW/USB, Beacon 145.810 USB
Oscar 19 19 Sep 03:40:24 03:45:11 39° 289° (WNW) 03:49:55 437.125 CW, 437.150 USB
TMSAT-1 19 Sep 03:42:50 03:47:25 29° 96° (E) 03:51:58 436.925 FM
RS-15 19 Sep 03:48:18 03:57:45 34° 106° (ESE) 04:07:00 29.354 - 29.394 USB, Beacon 29.352 USB
AO-27 19 Sep 03:56:05 04:01:16 67° 286° (WNW) 04:06:26 436.795 MHz FM
ISS 19 Sep 04:02:05 04:05:05 31° 325° (NW) 04:08:06 145.800 FM
Saudisat 1A 19 Sep 04:03:32 04:07:21 29° 247° (WSW) 04:11:08 436.775 MHz
OPAL 19 Sep 04:11:20 04:14:58 20° 63° (ENE) 04:18:37 ?
KITSAT 1 19 Sep 04:13:49 04:20:24 26° 47° (NE) 04:26:55 435.175 FM
Oscar 16 19 Sep 04:20:22 04:23:33 17° 295° (WNW) 04:26:43 437.025 USB, Beacon 2401.1428
PANSAT 19 Sep 04:21:47 04:25:05 28° 180° (S) 04:28:23 not established
AO-Echo 19 Sep 04:38:38 04:42:11 21° 292° (WNW) 04:45:48 ?
Gurwin Techsat 1B 19 Sep 04:44:43 04:49:50 50° 288° (WNW) 04:54:56 435.225 FM
ITAMSAT 1 19 Sep 05:02:13 05:05:26 17° 296° (WNW) 05:08:39 435.822 SSB
Uribyol 2 19 Sep 05:07:04 05:09:45 14° 297° (WNW) 05:12:26 436.500 FM
JAS-1B 19 Sep 05:18:07 05:20:59 14° 299° (WNW) 05:23:51 435.800 - 435.900 CW/SSB
TMSAT-1 19 Sep 05:22:40 05:27:14 30° 291° (WNW) 05:31:47 436.925 FM
AO-7 19 Sep 05:32:06 05:40:17 61° 104° (ESE) 05:48:26 29.400 - 29.500 MHz
Uosat F 19 Sep 05:46:57 05:52:00 81° 103° (ESE) 05:57:01 435.120 FM
OPAL 19 Sep 05:48:30 05:53:26 47° 258° (WSW) 05:58:28 ?
RS-15 19 Sep 05:58:30 06:09:23 61° 305° (NW) 06:20:12 29.354 - 29.394 USB, Beacon 29.352 USB
PANSAT 19 Sep 06:01:57 06:04:47 20° 193° (SSW) 06:07:37 not established
KITSAT 1 19 Sep 06:08:25 06:16:26 70° 246° (WSW) 06:24:24 435.175 FM
STRAND 1 19 Sep 06:29:34 06:33:28 23° 67° (ENE) 06:37:22 ?
JAS-2 19 Sep 06:40:07 06:45:55 41° 99° (E) 06:52:23 435.800 - 435.900 CW/SSB, 435.910 FM
Hamsat 19 Sep 07:19:56 07:24:12 88° 282° (WNW) 07:28:24 145.90 MHz
AO-7 19 Sep 07:25:50 07:32:29 28° 301° (WNW) 07:39:09 29.400 - 29.500 MHz
Uosat F 19 Sep 07:29:03 07:30:04 11° 298° (WNW) 07:31:05 435.120 FM
SO-67 19 Sep 07:41:16 07:43:29 16° 94° (E) 07:45:41 435.3500 MHz FM
SO-50 19 Sep 07:47:26 07:51:58 39° 55° (NE) 07:56:30 436.795 FM
STRAND 1 19 Sep 08:07:44 08:12:24 37° 262° (W) 08:17:05 ?
RS-15 19 Sep 08:17:38 08:24:39 18° 332° (NNW) 08:31:42 29.354 - 29.394 USB, Beacon 29.352 USB
JAS-2 19 Sep 08:25:40 08:30:48 29° 291° (WNW) 08:36:26 435.800 - 435.900 CW/SSB, 435.910 FM
MaSat-1 19 Sep 08:46:57 08:51:50 59° 110° (ESE) 08:56:45 437.345 MHz
HO-68 19 Sep 08:55:43 08:58:58 13° 91° (E) 09:02:12 435.675 MHz FM
ISS 19 Sep 08:57:26 08:58:59 13° 25° (NNE) 09:00:32 145.800 FM
